User: anonymous   Login
Location: Theydon Bois
(51.6750°N, 0.1050°E)
Time: 08:59:34
(UTC+01:00)
Language:

MetOp-A - Orbit

View from above orbital plane
View from above orbital plane
View from above satellite
View from above satellite

Ground track
Ground track

The orbit data is extracted from the following two-line orbital elements,

1 29499U 06044A   18173.93995372 -.00000014 +00000-0 +13089-4 0  9995
2 29499 098.6263 231.2931 0001525 134.3586 221.3360 14.21524613605628
Epoch (UTC): 22 June 2018 22:33:32
Eccentricity: 0.0001525
inclination: 98.6263°
perigee height: 819 km
apogee height: 821 km
right ascension of ascending node: 231.2931°
argument of perigee: 134.3586°
revolutions per day: 14.21524613
mean anomaly at epoch: 221.3360°
orbit number at epoch: 60562

The dashed part of the orbit path shows where the satellite is in the earth's shadow,  

DLR